Regional Weather Roundup
Issued by NWS State College, PA

Home | Current Version | Previous Version | Text Only | Print | Product List | Glossary On
Versions: 1 2 3 4 5 6 7 8 9 10 11 12 13 14 15 16 17 18 19 20 21 22 23 24 25 26 27 28 29 30 31 32 33 34 35 36 37 38 39 40 41 42 43 44 45 46 47 48 49 50
000
ASUS41 KCTP 060403
RWRCTP

REGIONAL WEATHER ROUNDUP
NATIONAL WEATHER SERVICE STATE COLLEGE PA
1100 PM EST FRI FEB 05 2016

Note: "fair" indicates few or no clouds below 12,000 feet with no
significant weather and/or obstructions to visibility.

* = STATION THAT DOES NOT REPORT PRECIPITATION /E.G. RAIN...SNOW...ETC/
    THUNDER OR FOG.

PAZ002>004-007>009-013>016-020>023-029>032-060500-
WESTERN PENNSYLVANIA

CITY           SKY/WX    TMP DP  RH WIND       PRES   REMARKS
ERIE           MOCLDY    28  17  63 S9        30.30F
MEADVILLE      CLEAR     28  16  60 VRB3      30.29S
FRANKLIN*      CLEAR     21  12  68 S5        30.31S WCI  15
NEW CASTLE     MOCLDY    26  19  74 S3        30.33S
BEAVER COUNTY  NOT AVBL
BUTLER*        CLEAR     25  16  68 S3        30.35F
PITTSBURGH INT PTCLDY    26  17  68 S3        30.33S
PITTSBURGH     CLEAR     30  16  56 S6        30.33S
INDIANA*       PTCLDY    23  19  86 CALM      30.36S
LATROBE        CLEAR     23  18  80 CALM      30.36R
WASHINGTON CO* CLEAR     21  18  86 CALM      30.34S
$$

PAZ004>006-010>012-017>019-024>028-033>037-041-042-045-046-049>053-060500-
CENTRAL PENNSYLVANIA

CITY           SKY/WX    TMP DP  RH WIND       PRES   REMARKS
BRADFORD       CLEAR     14  10  84 CALM      30.25S
DUBOIS         CLEAR     22  14  71 CALM      30.28S
CLEARFIELD     CLEAR     24  15  68 SW3       30.32R
JOHNSTOWN      CLEAR     23  12  62 SW5       30.27S
ALTOONA        CLOUDY    26  15  63 W3        30.33R
STATE COLLEGE  CLEAR     26  16  64 CALM      30.33S
WILLIAMSPORT   CLEAR     27  15  61 W7        30.35S
SELINSGROVE    CLEAR     26  19  74 CALM      30.36S
FT INDIANTOWN  CLEAR     32  15  50 NW5       30.34F
CAPITAL CITY   CLEAR     31  16  54 W5        30.36S
HARRISBURG     CLEAR     31  17  56 NW5       30.36S
YORK           CLEAR     21  16  81 CALM      30.36S
$$

PAZ038>040-043-044-047-048-054-055-060>062-067>071-060500-
EASTERN PENNSYLVANIA

CITY           SKY/WX    TMP DP  RH WIND       PRES   REMARKS
SCRANTON       PTCLDY    24  16  71 CALM      30.31S
MOUNT POCONO   CLEAR     22  13  68 NW8       30.23F WCI  12
ALLENTOWN      CLEAR     28  15  58 CALM      30.34S
QUAKERTOWN*    CLEAR     25  19  80 MISG      30.34S
READING        CLEAR     29  19  66 SW5       30.35R
LANCASTER      CLEAR     28  17  63 W7        30.35S
COATESVILLE    CLEAR     30  23  74 NW8       30.34S
POTTSTOWN      CLEAR     27  18  69 CALM      30.36S
BLUE BELL        N/A     28  21  74 CALM      30.34S
DOYLESTOWN     PTCLDY    29  15  56 CALM      30.33R
WILLOW GROVE   NOT AVBL
NORTH PHILA    CLEAR     31  18  58 N3        30.37R
PHILADELPHIA   CLEAR     35  16  45 N5        30.37S
$$



USA.gov is the U.S. government's official web portal to all federal, state and local government web resources and services.